EST,Max TemperatureF,Mean TemperatureF,Min TemperatureF,Max Dew PointF,MeanDew PointF,Min DewpointF,Max Humidity, Mean Humidity, Min Humidity, Max Sea Level PressureIn, Mean Sea Level PressureIn, Min Sea Level PressureIn, Max VisibilityMiles, Mean VisibilityMiles, Min VisibilityMiles, Max Wind SpeedMPH, Mean Wind SpeedMPH, Max Gust SpeedMPH,PrecipitationIn, CloudCover, Events, WindDirDegrees
2014-2-1,39,28,16,29,19,12,92,68,38,30.32,30.19,29.99,10,9,2,7,2,,0.01,3,Snow,192
2014-2-2,37,34,32,31,28,20,88,76,54,30.06,29.91,29.84,10,10,8,13,3,22,0.01,5,Rain,289
2014-2-3,33,22,10,20,13,6,84,58,44,30.30,30.20,30.09,10,10,10,7,3,18,0.00,0,,345
2014-2-4,33,17,1,14,8,-4,92,68,42,30.44,30.38,30.30,10,10,10,5,0,,0.00,0,,356
2014-2-5,21,18,10,18,16,8,93,84,66,30.32,30.03,29.77,10,3,0,10,3,,0.44,8,Fog-Snow,7
2014-2-6,24,10,-5,9,2,-10,88,72,48,30.23,30.15,29.97,10,10,10,6,1,,0.00,1,,197
2014-2-7,28,10,-9,7,0,-16,83,58,36,30.17,30.13,30.09,10,10,10,8,4,18,0.00,1,,246
2014-2-8,28,19,10,5,1,-1,67,47,30,30.20,30.15,30.11,10,10,10,10,5,17,0.00,1,,243
2014-2-9,26,13,0,16,8,-5,88,70,41,30.19,30.06,29.94,10,7,1,8,1,,0.02,5,Snow,138
2014-2-10,24,16,1,16,10,-3,93,75,40,30.17,29.98,29.89,10,6,1,13,2,23,0.02,7,Snow,303
2014-2-11,21,5,-11,-3,-8,-17,80,57,33,30.42,30.27,30.17,10,10,10,13,4,26,0.00,0,,272
2014-2-12,30,6,-17,-3,-11,-23,79,53,20,30.54,30.47,30.41,10,10,10,7,1,,0.00,0,,227
2014-2-13,30,15,0,29,15,-9,93,80,47,30.39,29.86,29.24,10,4,0,15,4,24,0.93,7,Fog-Snow,1
2014-2-14,33,30,26,30,27,14,96,85,58,29.63,29.03,28.82,10,4,1,21,9,47,0.47,7,Snow,332
2014-2-15,32,22,12,25,21,10,92,81,59,29.87,29.73,29.53,10,6,2,10,4,18,0.03,6,Snow,357
2014-2-16,28,21,14,20,5,-4,69,50,39,29.92,29.68,29.46,10,10,9,20,11,36,0.00,1,,286
2014-2-17,26,11,-5,-5,-8,-11,76,41,22,30.35,30.18,29.94,10,10,9,14,8,24,0.00,0,Snow,284
2014-2-18,23,4,-14,20,7,-18,89,80,62,30.38,30.16,29.96,10,4,0,9,2,,0.45,6,Fog-Snow,356
2014-2-19,28,16,5,27,20,2,96,88,75,30.06,29.88,29.75,10,6,0,5,1,,0.18,6,Fog-Snow,300
2014-2-20,46,34,23,31,22,16,92,54,29,30.18,30.04,29.81,10,10,9,15,6,25,0.00,3,,283
2014-2-21,36,33,30,34,32,30,100,94,82,30.16,29.99,29.70,10,4,1,9,2,,0.61,8,Rain-Snow,4
2014-2-22,48,36,24,29,22,10,100,63,27,29.87,29.80,29.76,10,8,0,15,4,29,0.00,1,Fog,234
2014-2-23,46,37,28,21,13,8,61,33,25,29.92,29.84,29.73,10,10,10,12,6,22,0.00,3,,237
2014-2-24,37,28,19,11,5,0,57,40,27,29.87,29.76,29.70,10,10,10,15,8,25,0.00,3,,291
2014-2-25,21,14,6,3,0,-3,69,49,38,29.91,29.88,29.83,10,10,10,15,10,22,0.00,2,,280
2014-2-26,25,10,-6,12,-1,-12,83,58,28,29.89,29.79,29.68,10,8,1,13,4,22,0.00,3,Snow,247
2014-2-27,21,10,0,12,2,-9,87,63,30,29.83,29.70,29.58,10,8,0,13,4,20,0.01,6,Fog-Snow,233
2014-2-28,19,7,-7,-1,-10,-14,72,43,22,30.44,30.21,29.84,10,10,10,15,7,22,0.00,0,,287